Location: Potomac
(46.8816°N, 113.5795°W)
Time: 21:54:29
(UTC+00:00)

UKube-1 - Pass Details

Date: 02 July 2022
Orbit: 608 x 615 km, 98.4° (Epoch: 16 August)

Event Time Altitude Azimuth Distance (km) Brightness Sun altitude
Rises 04:36:20 0° 28° (NNE) 2,895 ? -8.9°
Reaches altitude 10° 04:39:03 10° 45° (NE) 1,983 ? -9.2°
Maximum altitude 04:42:13 20° 93° (E) 1,444 ? -9.6°
Enters shadow 04:44:37 13° 132° (SE) 1,769 ? -9.8°
